Location: Stull Observatory
(42.2506°N, 77.7903°W)
Time: 19:16:43
(UTC-05:00)

Daily predictions for brighter satellites

Satellite Brightness Start Highest point End
(mag) Time Altitude Azimuth Time Altitude Azimuth Time Altitude Azimuth
BREEZE-M DEB (TANK) 3.8 18:15:07 10° NW 18:17:27 28° NNE 18:21:50 10° E
Okean 3 4.5 18:14:48 10° NNW 18:19:00 53° W 18:23:08 10° S
COSMO-SKYMED 1 2.5 18:14:53 10° NNE 18:19:14 78° ESE 18:23:34 10° S
Okean 2 Rocket 3.1 18:20:07 10° S 18:24:35 83° E 18:29:03 10° N
FENGYUN 3A 4.4 18:20:48 10° SE 18:25:27 30° ENE 18:30:08 10° N
Cosmos 1190 Rocket 4.1 18:20:59 10° S 18:26:03 57° ESE 18:31:09 10° NNE
Okean 1 3.8 18:24:17 10° N 18:28:07 39° ENE 18:31:56 10° SSE
Cosmos 1461 2.9 18:26:05 10° NNW 18:30:02 54° NE 18:34:02 10° SE
COSMOS 2428 4.2 18:27:39 10° N 18:31:20 17° NE 18:34:54 10° E
deb Kosmos-1763 4.1 18:28:57 10° S 18:32:42 64° ESE 18:36:29 10° NNE
CENTAUR R/B 3.8 18:25:24 10° NW 18:33:09 59° WSW 18:41:18 10° SSE
Cosmos 44 3.3 18:29:19 10° NW 18:33:45 73° WSW 18:38:02 10° SSE
Meteor 1-25 Rocket 4.2 18:29:23 10° S 18:34:58 77° E 18:40:39 10° NNE
Cosmos 1346 Rocket 4.4 18:31:53 10° NNW 18:35:36 40° W 18:39:15 10° SSW
Spot 2 Rocket 4.3 18:32:31 10° SE 18:36:49 29° ENE 18:41:08 10° N
H-2A R/B 4.0 18:36:37 10° ESE 18:39:21 20° ENE 18:42:07 10° NNE
Cosmos 1745 Rocket 4.2 18:34:35 10° S 18:40:54 80° W 18:47:14 10° N
Cosmos 2151 Rocket 3.6 18:38:49 10° S 18:43:14 61° E 18:47:43 10° NNE
Cosmos 1812 2.9 18:41:45 10° N 18:45:37 79° W 18:49:27 10° S
Helios 1A 4.5 18:44:50 14° E 18:46:36 18° ENE 18:49:22 10° NNE
NOAA 12 4.1 18:43:40 10° SSE 18:48:59 89° ENE 18:54:20 10° NNW
Meteor 1-11 Rocket 4.3 18:44:07 10° SSE 18:49:21 37° E 18:54:42 10° NNE
Okean 1 Rocket 4.0 18:46:24 10° SE 18:50:08 27° E 18:53:54 10° NNE
Cosmos 1386 Rocket 4.5 18:45:04 10° S 18:51:11 87° W 18:57:16 10° N
METEOR-M 4.2 18:46:59 10° SSE 18:52:20 88° WSW 18:57:43 10° NNW
GEOS 3 Rocket 3.8 18:48:42 10° NE 18:53:51 54° ESE 18:59:00 10° SSW
Cosmos 1954 Rocket 4.2 18:48:54 10° S 18:53:51 48° ESE 18:58:51 10° NNE
Cosmos 2219 4.4 18:52:22 10° SE 18:56:28 21° E 18:58:54 16° ENE
HJ-1C 3.6 18:53:56 10° SSE 18:57:11 47° ENE 19:00:27 10° N
Cosmos 2360 Rocket 2.4 18:53:10 10° NNW 18:58:40 50° ENE 19:04:09 10° SE
Cosmos 2219 Rocket 3.7 18:57:45 10° N 19:01:14 16° NE 19:02:23 16° ENE
Helios 1B rocket 3.8 19:07:49 20° ESE 19:07:49 20° ESE 19:09:55 10° SSE
Okean 1-7 Rocket 4.3 19:03:41 10° N 19:07:48 33° ENE 19:10:37 17° SE
Cosmos 1602 3.6 19:08:06 10° S 19:11:55 63° E 19:15:48 10° NNE
Cosmos 1633 2.4 19:08:44 10° S 19:12:24 70° E 19:16:05 10° NNE
FREGAT/IRIS 4.0 19:14:27 10° S 19:17:23 42° W 19:20:22 10° NNW
Cosmos 1025 Rocket 3.7 19:14:23 10° NNE 19:18:18 31° ENE 19:18:32 31° E
ALOS 2.2 19:15:19 10° SSE 19:19:59 87° WSW 19:24:41 10° NNW
Cosmos 1833 4.1 19:16:01 10° SSW 19:21:42 78° ESE 19:27:23 10° NNE
Spot 1 4.3 19:21:16 33° ESE 19:22:25 42° ENE 19:26:18 10° N
Cosmos 1536 Rocket 4.3 19:20:41 10° NNW 19:25:03 55° W 19:29:25 10° S
Cosmos 2333 Rocket 3.5 19:22:34 10° N 19:26:52 21° NE 19:27:00 21° NE
Cosmos 1818 3.9 19:23:47 10° SW 19:29:11 65° NW 19:34:39 10° NNE
SL-16 R/B 3.8 19:27:17 10° NW 19:32:23 35° WSW 19:37:28 10° S
Intercosmos 24 4.5 19:29:35 10° SSE 19:33:29 47° E 19:38:51 10° NNE
SJ-6B 4.5 19:29:56 10° SSW 19:33:39 36° W 19:37:20 10° NNW
Cosmos 1741 Rocket 4.1 19:29:07 10° S 19:34:09 51° ESE 19:37:55 17° NE
SL-08 ROCKET BODY 4.4 19:28:57 10° S 19:35:00 61° E 19:41:06 10° NNE
FengYun 1-2 T 4.5 19:30:14 10° S 19:35:41 70° WSW 19:41:11 10° NNW
TSX-5 4.2 19:34:25 10° SW 19:37:29 47° WNW 19:39:05 24° N
Cosmos 1023 Rocket 4.4 19:32:40 10° SSW 19:37:45 89° WNW 19:42:55 10° NNE
Resurs 01 Rocket 1.9 19:35:04 10° S 19:39:27 69° WSW 19:43:52 10° NNW
Cosmos 1340 3.9 19:37:34 10° NNW 19:41:10 42° W 19:44:45 10° SSW
Meteor 1-19 Rocket 4.4 19:36:45 10° NNW 19:42:25 74° W 19:48:08 10° S
Cosmos 1238 Rocket 3.5 19:39:42 10° NNW 19:42:35 39° W 19:45:21 10° SSW
Gbstr 26 Del rocket 2.9 19:40:46 10° SW 19:43:57 51° S 19:43:57 51° S
DELTA 2 R/B (1) 4.1 19:41:22 10° W 19:46:48 50° SSW 19:48:38 36° SSE
Cosmos 1570 Rocket 3.9 19:41:42 10° NNW 19:46:57 72° ENE 19:48:44 41° SE
Cosmos 2181 Rocket 4.5 19:41:48 10° NNW 19:47:56 62° W 19:54:09 10° S
Cosmos 2327 Rocket 4.4 19:41:58 10° S 19:48:04 65° E 19:54:20 10° NNE
Meteor 1-5 Rocket 4.3 19:43:45 10° S 19:49:37 62° E 19:55:28 10° NNE
Cosmos 2322 Rocket 4.4 19:45:42 10° NW 19:50:07 24° WSW 19:54:30 10° SSW
Tiangong 2 3.3 19:52:36 10° W 19:54:34 20° SW 19:54:34 20° SW
Genesis I 3.9 19:53:58 10° NNW 19:56:54 46° N 19:56:54 46° N
Cosmos 1536 3.2 19:55:14 10° SSW 19:59:11 62° W 20:03:10 10° N
Cosmos 2322 4.2 19:57:37 10° NNW 20:03:14 57° WSW 20:07:31 17° S
CZ-2D R/B 4.1 20:03:05 37° SW 20:04:07 49° W 20:07:49 10° NNW
Cosmos 2074 Rocket 4.0 20:01:01 10° S 20:07:16 84° W 20:13:35 10° N
Cosmos 1140 Rocket 4.3 20:02:31 10° SW 20:07:29 49° WNW 20:12:30 10° N
Cosmos 2184 Rocket 4.0 20:01:38 10° S 20:07:58 86° W 20:14:17 10° N
Meteor 1-23 Rocket 4.4 20:02:59 10° NNW 20:08:49 76° W 20:12:58 20° S
Cosmos 2208 Rocket 4.1 20:05:46 10° NNW 20:11:14 77° WSW 20:12:31 53° S
COSMOS 2428 2.6 20:10:39 10° NNW 20:16:22 85° WSW 20:16:58 72° S
Meteor 2-4 Rocket 4.4 20:11:05 10° NNW 20:16:29 51° W 20:21:42 10° SSW
Cosmos 2237 4.4 20:11:11 10° NNW 20:16:53 67° WSW 20:18:32 45° S
Cosmos 2333 4.1 20:14:09 10° NNW 20:19:54 89° NE 20:20:01 87° SSE
Helios 1A 4.1 20:21:29 41° WSW 20:21:51 41° W 20:25:49 10° NNW
Cosmos 2237 Rocket 3.4 20:20:39 10° NNW 20:23:52 29° NNE 20:23:52 29° NNE
Nadezhda 3 Rocket 4.2 20:22:21 10° N 20:27:16 56° NNE 20:27:16 56° NNE
Envisat 3.6 20:33:04 50° NNW 20:33:04 50° NNW 20:36:49 10° NNW
USA 229 DEB 3.6 20:24:34 10° NW 20:31:45 85° NE 20:32:15 78° ESE
USA 229 3.6 20:24:40 10° NW 20:31:51 84° NE 20:32:19 78° ESE
Cosmos 2285 Rocket 4.0 20:27:40 10° NNW 20:34:09 79° WSW 20:34:38 74° SSW
Cosmos 2219 3.7 20:34:27 10° SW 20:40:07 59° WNW 20:41:02 52° NNW
Cosmos 2360 Rocket 4.3 20:37:53 10° NW 20:42:17 24° W 20:46:41 10° SSW
Cosmos 2219 Rocket 3.0 20:40:20 10° NNW 20:44:09 45° NNW 20:44:09 45° NNW
ATLAS 2AS CENTAUR R/B 4.5 20:43:14 10° NNW 20:49:23 23° NNE 20:49:25 23° NNE
SL-16 R/B 4.3 20:52:49 10° N 20:54:14 17° N 20:54:14 17° N
NOSS 3-1 (C) 4.3 20:57:46 10° NNW 21:03:46 57° N 21:03:46 57° N
Cosmos 2333 Rocket 3.7 21:05:57 10° NNW 21:09:02 33° NW 21:09:02 33° NW
